Hauptseite
METAR-TAF:

METAR-TAF

Flughäfen :

Monte Cimone, Italien

Breite: 44-12N, Länge: 010-42E, Höhe: 2165 m

Beobachtung

Neuester Wetterbericht von vor 1 Stunde und 9 Minuten, um 00:55 UTC
Wind 7 kt aus Nord/Nordost
Temperatur 8°C
Luftfeuchtigkeit 57%
Luftdruck 1026 hPa
Sichtweite 10 km oder mehr
keine Wolken unter 1500 m und keine Kumulonimbus oder Gewitterwolken

METAR: LIVC 260055Z 02007KT CAVOK 08/00 Q1026 RMK SKC MON LIB VAL NIL VIS MIN 9999

Zeit: 04:04 (02:04 UTC)


TAF: fehlend

Wetterbeobachtungen und Prognosen von mehr als 4000 Flughäfen (METAR und TAF Bericht).

Die verfügbaren Stationen werden durch gelbe und rote Markierungen auf der Karte dargestellt.

Führen Sie die Maus auf sie, um den Namen der Station zu sehen.

Darauf klicken, um die Beobachtung von Wetterbeobachtungen und Prognosen zu sehen.

Um die Karte zu ändern : klicken Sie auf den grünen Tasten mit einem schwarzen Kreuz Zum Vergrößern, auf den grünen Button mit einem Gedankenstrich zu verkleinern, oder auf die grünen Pfeile für benachbarte Karten.


METAR-TAF: